AAL2287 KDCA-KMCO

Flight info

Callsign AAL2287
Flight time 1h 48m
Altitude 38000
Route JDUBB4 RRSIN GSO Q83 ROYCO Q85 LPERD SNFLD3
Aircraft B38M/M-SDE1FGHILORVWXY/HB1

Departure

Time 2026-05-05 15:25
Airport Ronald Reagan Washington National Airport (KDCA)

Arrival

Time 2026-05-05 17:13
Airport Orlando International Airport (KMCO)
Time Latitude Longitude Altitude Speed Heading
2026-05-05 14:51 38.85554 -77.04273 23 ft 0 kts 338°
2026-05-05 15:12 38.85549 -77.04270 23 ft 4 kts 339°
2026-05-05 15:12 38.85523 -77.04261 26 ft 4 kts 358°
2026-05-05 15:12 38.85499 -77.04266 24 ft 4 kts 39°
2026-05-05 15:12 38.85490 -77.04280 28 ft 0 kts 72°
2026-05-05 15:21 38.85496 -77.04256 28 ft 9 kts 72°
2026-05-05 15:21 38.85518 -77.04173 23 ft 10 kts 71°
2026-05-05 15:21 38.85543 -77.04071 26 ft 13 kts 73°
2026-05-05 15:22 38.85588 -77.03971 23 ft 14 kts 20°
2026-05-05 15:22 38.85689 -77.03972 26 ft 16 kts 355°
2026-05-05 15:22 38.85810 -77.03984 26 ft 20 kts 355°
2026-05-05 15:22 38.85966 -77.03971 23 ft 24 kts 15°
2026-05-05 15:23 38.86095 -77.03883 23 ft 13 kts 86°
2026-05-05 15:23 38.86071 -77.03869 25 ft 0 kts 177°
2026-05-05 15:24 38.85937 -77.03855 27 ft 54 kts 177°
2026-05-05 15:24 38.85294 -77.03789 22 ft 129 kts 176°
2026-05-05 15:24 38.84203 -77.03680 170 ft 180 kts 175°
2026-05-05 15:25 38.82879 -77.03540 799 ft 197 kts 178°
2026-05-05 15:25 38.81435 -77.03503 1285 ft 216 kts 183°
2026-05-05 15:25 38.79863 -77.03509 1768 ft 231 kts 182°
2026-05-05 15:25 38.78258 -77.03497 2246 ft 234 kts 183°
2026-05-05 15:26 38.76649 -77.03778 2710 ft 236 kts 206°
2026-05-05 15:26 38.75383 -77.05061 3225 ft 233 kts 237°
2026-05-05 15:26 38.74766 -77.06958 3721 ft 234 kts 260°
2026-05-05 15:26 38.74611 -77.09070 4254 ft 242 kts 265°
2026-05-05 15:27 38.74502 -77.11205 4751 ft 243 kts 265°
2026-05-05 15:27 38.74305 -77.13337 5220 ft 240 kts 250°
2026-05-05 15:27 38.73616 -77.15257 5733 ft 237 kts 243°
2026-05-05 15:27 38.72887 -77.17162 6254 ft 239 kts 243°
2026-05-05 15:28 38.72165 -77.19088 6738 ft 239 kts 243°
2026-05-05 15:28 38.71451 -77.21003 7225 ft 240 kts 243°
2026-05-05 15:28 38.70538 -77.22820 7703 ft 244 kts 224°
2026-05-05 15:28 38.69260 -77.24244 8239 ft 244 kts 221°
2026-05-05 15:29 38.67969 -77.25658 8745 ft 245 kts 222°
2026-05-05 15:29 38.66677 -77.27074 9291 ft 244 kts 222°
2026-05-05 15:29 38.65383 -77.28494 9792 ft 244 kts 222°
2026-05-05 15:29 38.64106 -77.29898 10186 ft 251 kts 222°
2026-05-05 15:30 38.62714 -77.31431 10372 ft 277 kts 222°
2026-05-05 15:30 38.61195 -77.33104 10640 ft 298 kts 222°
2026-05-05 15:30 38.59596 -77.34864 11208 ft 306 kts 222°
2026-05-05 15:30 38.57959 -77.36663 11924 ft 311 kts 222°
2026-05-05 15:31 38.56866 -77.37863 12402 ft 314 kts 222°
2026-05-05 15:31 38.55201 -77.39692 13111 ft 318 kts 222°
2026-05-05 15:31 38.53505 -77.41554 13824 ft 323 kts 222°
2026-05-05 15:31 38.51230 -77.44049 14672 ft 328 kts 223°
2026-05-05 15:32 38.49487 -77.45960 15314 ft 333 kts 223°
2026-05-05 15:32 38.48294 -77.47268 15737 ft 336 kts 223°
2026-05-05 15:32 38.46532 -77.49199 16368 ft 340 kts 224°
2026-05-05 15:32 38.44717 -77.51187 16965 ft 345 kts 224°
2026-05-05 15:33 38.42880 -77.53198 17570 ft 349 kts 224°
2026-05-05 15:33 38.41024 -77.55225 18189 ft 354 kts 224°
2026-05-05 15:33 38.39120 -77.57245 18720 ft 360 kts 220°
2026-05-05 15:33 38.37040 -77.59078 19235 ft 366 kts 217°
2026-05-05 15:34 38.34889 -77.60853 19719 ft 371 kts 217°
2026-05-05 15:34 38.32740 -77.62646 20205 ft 375 kts 217°
2026-05-05 15:34 38.30556 -77.64496 20714 ft 379 kts 218°
2026-05-05 15:34 38.28407 -77.66469 21211 ft 381 kts 222°
2026-05-05 15:35 38.26361 -77.68635 21702 ft 384 kts 224°
2026-05-05 15:35 38.24328 -77.70885 22159 ft 388 kts 225°
2026-05-05 15:35 38.22280 -77.73157 22617 ft 393 kts 224°
2026-05-05 15:35 38.20217 -77.75420 23084 ft 397 kts 224°
2026-05-05 15:36 38.18104 -77.77712 23547 ft 401 kts 224°
2026-05-05 15:36 38.15963 -77.80014 23937 ft 405 kts 224°
2026-05-05 15:36 38.13798 -77.82331 24350 ft 408 kts 224°
2026-05-05 15:36 38.11607 -77.84669 24748 ft 411 kts 224°
2026-05-05 15:37 38.09410 -77.87014 25130 ft 414 kts 224°
2026-05-05 15:37 38.07198 -77.89373 25507 ft 417 kts 224°
2026-05-05 15:37 38.04966 -77.91750 25884 ft 420 kts 224°
2026-05-05 15:37 38.02737 -77.94121 26232 ft 423 kts 224°
2026-05-05 15:38 38.00467 -77.96533 26554 ft 427 kts 224°
2026-05-05 15:38 37.98186 -77.98953 26953 ft 428 kts 224°
2026-05-05 15:38 37.95884 -78.01394 27296 ft 431 kts 224°
2026-05-05 15:38 37.93575 -78.03842 27632 ft 434 kts 224°
2026-05-05 15:39 37.91251 -78.06305 27964 ft 437 kts 224°
2026-05-05 15:39 37.88939 -78.08753 28290 ft 439 kts 224°
2026-05-05 15:39 37.86588 -78.11240 28612 ft 442 kts 224°
2026-05-05 15:39 37.84219 -78.13746 28943 ft 444 kts 224°
2026-05-05 15:40 37.81844 -78.16254 29248 ft 446 kts 224°
2026-05-05 15:40 37.79442 -78.18789 29557 ft 449 kts 224°
2026-05-05 15:40 37.77066 -78.21294 29857 ft 451 kts 224°
2026-05-05 15:40 37.74639 -78.23852 30132 ft 454 kts 224°
2026-05-05 15:41 37.72201 -78.26418 30365 ft 456 kts 224°
2026-05-05 15:41 37.69756 -78.28989 30632 ft 457 kts 224°
2026-05-05 15:41 37.67340 -78.31526 30970 ft 456 kts 224°
2026-05-05 15:41 37.64895 -78.34091 31371 ft 454 kts 225°
2026-05-05 15:42 37.62469 -78.36635 31712 ft 453 kts 225°
2026-05-05 15:42 37.60037 -78.39184 31961 ft 455 kts 225°
2026-05-05 15:42 37.57596 -78.41742 32144 ft 457 kts 225°
2026-05-05 15:42 37.55172 -78.44280 32454 ft 457 kts 225°
2026-05-05 15:43 37.52732 -78.46831 32851 ft 455 kts 225°
2026-05-05 15:43 37.50288 -78.49385 33204 ft 453 kts 225°
2026-05-05 15:43 37.47854 -78.51924 33481 ft 454 kts 225°
2026-05-05 15:43 37.45420 -78.54460 33750 ft 454 kts 225°
2026-05-05 15:44 37.42975 -78.56987 34068 ft 453 kts 225°
2026-05-05 15:44 37.40565 -78.59467 34351 ft 452 kts 225°
2026-05-05 15:44 37.38131 -78.61969 34570 ft 452 kts 225°
2026-05-05 15:44 37.35686 -78.64484 34751 ft 454 kts 225°
2026-05-05 15:45 37.33246 -78.66993 35034 ft 452 kts 225°
2026-05-05 15:45 37.30825 -78.69479 35395 ft 448 kts 225°
2026-05-05 15:45 37.28413 -78.71954 35780 ft 444 kts 226°
2026-05-05 15:45 37.26024 -78.74406 36023 ft 443 kts 226°
2026-05-05 15:46 37.23634 -78.76861 36188 ft 444 kts 226°
2026-05-05 15:46 37.21266 -78.79292 36373 ft 445 kts 226°
2026-05-05 15:46 37.18863 -78.81755 36630 ft 443 kts 226°
2026-05-05 15:46 37.16480 -78.84194 36815 ft 443 kts 226°
2026-05-05 15:47 37.14087 -78.86642 36956 ft 444 kts 226°
2026-05-05 15:47 37.12499 -78.88267 37082 ft 444 kts 226°
2026-05-05 15:47 37.09295 -78.91538 37427 ft 442 kts 226°
2026-05-05 15:47 37.06913 -78.93967 37678 ft 441 kts 226°
2026-05-05 15:48 37.04530 -78.96396 37863 ft 441 kts 226°
2026-05-05 15:48 37.02179 -78.98793 38006 ft 441 kts 226°
2026-05-05 15:48 36.99788 -79.01231 38020 ft 443 kts 226°
2026-05-05 15:49 36.94997 -79.06099 38009 ft 442 kts 227°
2026-05-05 15:49 36.90252 -79.10950 38030 ft 439 kts 228°
2026-05-05 15:50 36.85528 -79.15795 38039 ft 438 kts 228°
2026-05-05 15:50 36.80842 -79.20597 38053 ft 438 kts 228°
2026-05-05 15:51 36.76115 -79.25433 38063 ft 439 kts 228°
2026-05-05 15:51 36.71360 -79.30288 38070 ft 441 kts 229°
2026-05-05 15:52 36.66628 -79.35110 38094 ft 443 kts 229°
2026-05-05 15:52 36.61829 -79.39992 38082 ft 446 kts 228°
2026-05-05 15:53 36.56997 -79.44899 38076 ft 449 kts 229°
2026-05-05 15:53 36.52175 -79.49787 38021 ft 451 kts 229°
2026-05-05 15:54 36.47298 -79.54722 38039 ft 453 kts 229°
2026-05-05 15:54 36.42394 -79.59677 38044 ft 455 kts 229°
2026-05-05 15:55 36.37468 -79.64645 38039 ft 456 kts 229°
2026-05-05 15:55 36.32533 -79.69613 38081 ft 456 kts 229°
2026-05-05 15:56 36.27627 -79.74545 38060 ft 456 kts 229°
2026-05-05 15:56 36.22680 -79.79510 38083 ft 456 kts 229°
2026-05-05 15:57 36.17746 -79.84456 38087 ft 455 kts 229°
2026-05-05 15:57 36.12847 -79.89359 38092 ft 454 kts 229°
2026-05-05 15:58 36.07926 -79.94276 38093 ft 454 kts 229°
2026-05-05 15:58 36.02645 -79.98714 38082 ft 472 kts 214°
2026-05-05 15:59 35.96519 -80.01771 38075 ft 477 kts 210°
2026-05-05 15:59 35.90310 -80.04717 38076 ft 477 kts 210°
2026-05-05 16:00 35.84165 -80.07702 38082 ft 476 kts 211°
2026-05-05 16:00 35.78006 -80.10738 38096 ft 476 kts 211°
2026-05-05 16:01 35.71840 -80.13784 38098 ft 477 kts 211°
2026-05-05 16:01 35.65703 -80.16807 38082 ft 478 kts 211°
2026-05-05 16:02 35.59522 -80.19845 38115 ft 478 kts 211°
2026-05-05 16:02 35.53336 -80.22878 38138 ft 478 kts 211°
2026-05-05 16:03 35.47199 -80.25885 38142 ft 478 kts 211°
2026-05-05 16:03 35.41006 -80.28910 38140 ft 479 kts 210°
2026-05-05 16:04 35.34426 -80.30917 38124 ft 494 kts 197°
2026-05-05 16:04 35.27612 -80.32115 38110 ft 495 kts 196°
2026-05-05 16:05 35.20831 -80.33301 38118 ft 494 kts 196°
2026-05-05 16:05 35.14022 -80.34561 38110 ft 493 kts 197°
2026-05-05 16:06 35.07260 -80.35844 38096 ft 493 kts 197°
2026-05-05 16:06 35.00461 -80.37135 38104 ft 493 kts 197°
2026-05-05 16:07 34.93660 -80.38420 38107 ft 493 kts 197°
2026-05-05 16:07 34.86903 -80.39693 38107 ft 493 kts 197°
2026-05-05 16:08 34.80104 -80.40971 38106 ft 493 kts 197°
2026-05-05 16:08 34.73312 -80.42247 38104 ft 493 kts 197°
2026-05-05 16:09 34.66546 -80.43515 38111 ft 494 kts 197°
2026-05-05 16:09 34.59749 -80.44788 38086 ft 494 kts 197°
2026-05-05 16:10 34.52979 -80.46053 38100 ft 495 kts 197°
2026-05-05 16:10 34.46164 -80.47325 38107 ft 495 kts 197°
2026-05-05 16:11 34.39340 -80.48597 38129 ft 496 kts 197°
2026-05-05 16:12 34.25708 -80.51143 38138 ft 495 kts 198°
2026-05-05 16:13 34.09158 -80.56065 38084 ft 490 kts 203°
2026-05-05 16:13 34.02524 -80.58080 38109 ft 491 kts 202°
2026-05-05 16:14 33.89269 -80.62021 38117 ft 492 kts 202°
2026-05-05 16:15 33.76004 -80.65954 38105 ft 492 kts 202°
2026-05-05 16:16 33.62669 -80.69900 38127 ft 493 kts 202°
2026-05-05 16:17 33.52709 -80.72839 38132 ft 492 kts 203°
2026-05-05 16:18 33.43831 -80.75448 38141 ft 492 kts 203°
2026-05-05 16:19 33.33842 -80.78379 38161 ft 492 kts 202°
2026-05-05 16:19 33.23884 -80.81299 38128 ft 492 kts 202°
2026-05-05 16:20 33.10580 -80.85189 38122 ft 491 kts 202°
2026-05-05 16:22 32.94031 -80.90012 38134 ft 490 kts 202°
2026-05-05 16:23 32.80825 -80.93849 38085 ft 489 kts 204°
2026-05-05 16:23 32.70905 -80.96723 38122 ft 489 kts 204°
2026-05-05 16:24 32.64287 -80.98638 38125 ft 490 kts 204°
2026-05-05 16:25 32.54366 -81.01489 38091 ft 493 kts 202°
2026-05-05 16:25 32.47379 -81.02183 38140 ft 510 kts 188°
2026-05-05 16:25 32.43821 -81.02168 38127 ft 512 kts 188°
2026-05-05 16:26 32.29595 -81.02270 38087 ft 512 kts 189°
2026-05-05 16:27 32.22464 -81.02400 38120 ft 512 kts 189°
2026-05-05 16:27 32.15363 -81.02523 38123 ft 512 kts 189°
2026-05-05 16:28 32.08216 -81.02649 38098 ft 512 kts 189°
2026-05-05 16:28 32.01097 -81.02776 38075 ft 512 kts 189°
2026-05-05 16:29 31.94029 -81.02940 38090 ft 510 kts 190°
2026-05-05 16:29 31.86920 -81.03161 38104 ft 510 kts 191°
2026-05-05 16:30 31.79816 -81.03378 38104 ft 509 kts 190°
2026-05-05 16:30 31.72761 -81.03585 38093 ft 509 kts 191°
2026-05-05 16:31 31.65671 -81.03792 38106 ft 508 kts 191°
2026-05-05 16:31 31.58796 -81.04659 38122 ft 487 kts 206°
2026-05-05 16:32 31.55600 -81.05837 38110 ft 475 kts 214°
2026-05-05 16:32 31.52665 -81.07487 38121 ft 461 kts 221°
2026-05-05 16:32 31.47010 -81.11076 38095 ft 462 kts 221°
2026-05-05 16:33 31.41305 -81.14604 38112 ft 465 kts 220°
2026-05-05 16:33 31.35587 -81.18071 38124 ft 467 kts 219°
2026-05-05 16:34 31.29767 -81.21509 38123 ft 468 kts 219°
2026-05-05 16:34 31.23944 -81.24952 38122 ft 469 kts 219°
2026-05-05 16:35 31.17779 -81.27824 38126 ft 492 kts 204°
2026-05-05 16:35 31.14389 -81.28437 38084 ft 508 kts 193°
2026-05-05 16:35 31.10828 -81.28505 38136 ft 513 kts 189°
2026-05-05 16:36 31.03674 -81.28349 38119 ft 514 kts 188°
2026-05-05 16:36 30.96520 -81.28217 37922 ft 514 kts 189°
2026-05-05 16:37 30.92967 -81.28190 37374 ft 514 kts 189°
2026-05-05 16:37 30.89402 -81.28174 36913 ft 509 kts 189°
2026-05-05 16:37 30.85881 -81.28164 36464 ft 505 kts 189°
2026-05-05 16:37 30.82353 -81.28156 36017 ft 502 kts 189°
2026-05-05 16:38 30.78902 -81.28149 35589 ft 500 kts 189°
2026-05-05 16:38 30.75423 -81.28140 35166 ft 498 kts 189°
2026-05-05 16:38 30.71963 -81.28131 34748 ft 496 kts 188°
2026-05-05 16:38 30.68519 -81.28121 34334 ft 494 kts 188°
2026-05-05 16:39 30.65090 -81.28111 33806 ft 491 kts 189°
2026-05-05 16:39 30.61673 -81.28099 33352 ft 489 kts 188°
2026-05-05 16:39 30.58275 -81.28042 32896 ft 489 kts 186°
2026-05-05 16:39 30.54874 -81.27838 32449 ft 488 kts 184°
2026-05-05 16:40 30.51494 -81.27559 32002 ft 486 kts 183°
2026-05-05 16:40 30.48173 -81.27262 31586 ft 483 kts 183°
2026-05-05 16:40 30.44825 -81.26967 31146 ft 480 kts 183°
2026-05-05 16:40 30.41498 -81.26689 30729 ft 476 kts 183°
2026-05-05 16:41 30.38196 -81.26426 30310 ft 473 kts 183°
2026-05-05 16:41 30.34962 -81.26178 29847 ft 469 kts 183°
2026-05-05 16:41 30.31716 -81.25935 29358 ft 465 kts 183°
2026-05-05 16:41 30.28496 -81.25695 28881 ft 462 kts 183°
2026-05-05 16:42 30.25304 -81.25459 28415 ft 458 kts 183°
2026-05-05 16:42 30.22128 -81.25223 27945 ft 454 kts 183°
2026-05-05 16:42 30.18984 -81.24989 27498 ft 451 kts 183°
2026-05-05 16:42 30.15857 -81.24757 27052 ft 448 kts 183°
2026-05-05 16:43 30.12753 -81.24526 26617 ft 444 kts 183°
2026-05-05 16:43 30.09680 -81.24297 26154 ft 441 kts 183°
2026-05-05 16:43 30.06628 -81.24071 25737 ft 438 kts 183°
2026-05-05 16:43 30.03631 -81.23848 25325 ft 435 kts 183°
2026-05-05 16:44 30.00622 -81.23625 24913 ft 432 kts 183°
2026-05-05 16:44 29.97633 -81.23403 24508 ft 429 kts 183°
2026-05-05 16:44 29.94653 -81.23182 24109 ft 426 kts 183°
2026-05-05 16:44 29.91705 -81.22964 23703 ft 423 kts 183°
2026-05-05 16:45 29.88770 -81.22747 23245 ft 420 kts 183°
2026-05-05 16:45 29.85895 -81.22532 23137 ft 407 kts 183°
2026-05-05 16:45 29.83146 -81.22324 23119 ft 394 kts 183°
2026-05-05 16:45 29.80452 -81.22122 23101 ft 381 kts 184°
2026-05-05 16:46 29.77819 -81.21932 23117 ft 378 kts 184°
2026-05-05 16:46 29.75164 -81.21745 23138 ft 384 kts 184°
2026-05-05 16:46 29.72469 -81.21551 23116 ft 389 kts 184°
2026-05-05 16:46 29.69740 -81.21347 22625 ft 394 kts 183°
2026-05-05 16:47 29.67032 -81.21121 22180 ft 394 kts 182°
2026-05-05 16:47 29.64294 -81.20880 21727 ft 393 kts 182°
2026-05-05 16:47 29.61563 -81.20638 21282 ft 392 kts 182°
2026-05-05 16:47 29.58840 -81.20399 20843 ft 391 kts 181°
2026-05-05 16:48 29.56165 -81.20166 20417 ft 389 kts 181°
2026-05-05 16:48 29.53468 -81.19934 19956 ft 388 kts 181°
2026-05-05 16:48 29.50773 -81.19702 19557 ft 386 kts 181°
2026-05-05 16:48 29.48099 -81.19474 19146 ft 385 kts 180°
2026-05-05 16:49 29.45422 -81.19245 18731 ft 383 kts 180°
2026-05-05 16:49 29.42771 -81.19019 18316 ft 381 kts 180°
2026-05-05 16:49 29.40126 -81.18794 17849 ft 379 kts 180°
2026-05-05 16:49 29.37534 -81.18574 17396 ft 377 kts 180°
2026-05-05 16:50 29.34920 -81.18352 16944 ft 375 kts 180°
2026-05-05 16:50 29.32323 -81.18130 16497 ft 373 kts 180°
2026-05-05 16:50 29.29733 -81.17909 16057 ft 371 kts 180°
2026-05-05 16:50 29.27157 -81.17685 15615 ft 369 kts 179°
2026-05-05 16:51 29.24601 -81.17459 15184 ft 367 kts 179°
2026-05-05 16:51 29.22087 -81.17236 14764 ft 365 kts 179°
2026-05-05 16:51 29.19566 -81.17009 14349 ft 364 kts 178°
2026-05-05 16:51 29.17082 -81.16376 13944 ft 369 kts 163°
2026-05-05 16:52 29.14704 -81.15287 13492 ft 368 kts 160°
2026-05-05 16:52 29.12330 -81.14175 13020 ft 366 kts 161°
2026-05-05 16:52 29.09960 -81.13106 12559 ft 363 kts 161°
2026-05-05 16:52 29.07604 -81.12072 12141 ft 360 kts 162°
2026-05-05 16:53 29.05328 -81.11118 12039 ft 346 kts 164°
2026-05-05 16:53 29.03087 -81.10274 12023 ft 332 kts 165°
2026-05-05 16:53 29.00929 -81.09475 12006 ft 320 kts 165°
2026-05-05 16:53 28.98848 -81.08695 12011 ft 309 kts 165°
2026-05-05 16:54 28.96805 -81.07998 12004 ft 300 kts 173°
2026-05-05 16:54 28.94744 -81.07715 12021 ft 300 kts 179°
2026-05-05 16:54 28.92635 -81.07524 12033 ft 306 kts 179°
2026-05-05 16:54 28.90516 -81.07313 12024 ft 308 kts 178°
2026-05-05 16:55 28.88388 -81.07155 12002 ft 304 kts 188°
2026-05-05 16:55 28.86388 -81.07744 12026 ft 294 kts 204°
2026-05-05 16:55 28.84468 -81.08559 12009 ft 294 kts 204°
2026-05-05 16:55 28.82550 -81.09379 12015 ft 295 kts 204°
2026-05-05 16:56 28.80590 -81.10213 11629 ft 306 kts 204°
2026-05-05 16:56 28.78634 -81.11038 11221 ft 309 kts 203°
2026-05-05 16:56 28.76612 -81.11884 10796 ft 311 kts 202°
2026-05-05 16:56 28.74580 -81.12729 10370 ft 312 kts 202°
2026-05-05 16:57 28.72540 -81.13576 10076 ft 308 kts 202°
2026-05-05 16:57 28.70565 -81.14388 10019 ft 296 kts 201°
2026-05-05 16:57 28.68642 -81.15000 10001 ft 284 kts 195°
2026-05-05 16:57 28.66753 -81.15473 9982 ft 272 kts 194°
2026-05-05 16:58 28.64958 -81.15908 10008 ft 254 kts 195°
2026-05-05 16:58 28.63286 -81.16321 9992 ft 236 kts 195°
2026-05-05 16:58 28.61735 -81.16714 9790 ft 226 kts 195°
2026-05-05 16:58 28.60198 -81.17110 9392 ft 225 kts 195°
2026-05-05 16:59 28.58692 -81.17501 9012 ft 225 kts 195°
2026-05-05 16:59 28.57170 -81.17896 8639 ft 224 kts 195°
2026-05-05 16:59 28.55650 -81.18290 8265 ft 223 kts 194°
2026-05-05 16:59 28.54127 -81.18659 7890 ft 223 kts 189°
2026-05-05 17:00 28.52575 -81.18726 7529 ft 223 kts 181°
2026-05-05 17:00 28.51025 -81.18705 7171 ft 222 kts 181°
2026-05-05 17:00 28.49495 -81.18692 6826 ft 222 kts 180°
2026-05-05 17:00 28.47934 -81.18689 6459 ft 222 kts 180°
2026-05-05 17:01 28.46407 -81.18695 6087 ft 222 kts 180°
2026-05-05 17:01 28.44864 -81.18705 5711 ft 221 kts 181°
2026-05-05 17:01 28.43327 -81.18716 5334 ft 221 kts 181°
2026-05-05 17:01 28.41788 -81.18727 5053 ft 217 kts 180°
2026-05-05 17:02 28.40343 -81.18737 4989 ft 202 kts 181°
2026-05-05 17:02 28.38974 -81.18747 5001 ft 196 kts 181°
2026-05-05 17:02 28.37601 -81.18757 5000 ft 196 kts 180°
2026-05-05 17:02 28.36247 -81.18767 4993 ft 193 kts 180°
2026-05-05 17:03 28.34901 -81.18777 4995 ft 193 kts 180°
2026-05-05 17:03 28.33539 -81.18788 4823 ft 200 kts 180°
2026-05-05 17:03 28.32147 -81.18797 4594 ft 198 kts 180°
2026-05-05 17:03 28.30801 -81.18808 4341 ft 195 kts 180°
2026-05-05 17:04 28.29457 -81.18825 4085 ft 192 kts 180°
2026-05-05 17:04 28.28119 -81.18851 3841 ft 192 kts 179°
2026-05-05 17:04 28.26778 -81.18889 3598 ft 193 kts 180°
2026-05-05 17:04 28.25434 -81.18935 3351 ft 193 kts 179°
2026-05-05 17:05 28.24114 -81.19006 3109 ft 191 kts 180°
2026-05-05 17:05 28.22820 -81.19071 3003 ft 183 kts 179°
2026-05-05 17:05 28.21571 -81.19374 2990 ft 186 kts 207°
2026-05-05 17:05 28.20635 -81.20350 2993 ft 185 kts 239°
2026-05-05 17:06 28.20264 -81.21731 3014 ft 185 kts 263°
2026-05-05 17:06 28.20103 -81.23212 3017 ft 191 kts 263°
2026-05-05 17:06 28.19948 -81.24682 3016 ft 190 kts 262°
2026-05-05 17:06 28.19796 -81.26168 2994 ft 188 kts 263°
2026-05-05 17:07 28.19810 -81.27647 3009 ft 188 kts 285°
2026-05-05 17:07 28.20441 -81.28920 3000 ft 187 kts 314°
2026-05-05 17:07 28.21337 -81.29957 3021 ft 188 kts 317°
2026-05-05 17:07 28.22269 -81.30996 3002 ft 187 kts 316°
2026-05-05 17:08 28.23211 -81.32011 3011 ft 186 kts 322°
2026-05-05 17:08 28.24373 -81.32485 3018 ft 175 kts
2026-05-05 17:08 28.25182 -81.32470 3015 ft 176 kts
2026-05-05 17:08 28.26366 -81.32492 2980 ft 166 kts
2026-05-05 17:09 28.27524 -81.32511 2777 ft 166 kts
2026-05-05 17:09 28.28673 -81.32525 2545 ft 164 kts
2026-05-05 17:09 28.29807 -81.32539 2364 ft 163 kts
2026-05-05 17:09 28.30934 -81.32543 2136 ft 161 kts
2026-05-05 17:10 28.32039 -81.32551 1969 ft 156 kts
2026-05-05 17:10 28.33142 -81.32606 1747 ft 159 kts 358°
2026-05-05 17:10 28.34252 -81.32608 1510 ft 158 kts
2026-05-05 17:10 28.35350 -81.32596 1301 ft 158 kts
2026-05-05 17:11 28.36442 -81.32608 1091 ft 155 kts
2026-05-05 17:11 28.37513 -81.32622 878 ft 158 kts
2026-05-05 17:11 28.38599 -81.32681 682 ft 155 kts
2026-05-05 17:11 28.39681 -81.32667 508 ft 155 kts
2026-05-05 17:12 28.40773 -81.32697 312 ft 159 kts
2026-05-05 17:12 28.41879 -81.32657 123 ft 157 kts
2026-05-05 17:12 28.42862 -81.32674 107 ft 116 kts 359°
2026-05-05 17:12 28.43440 -81.32682 107 ft 64 kts
2026-05-05 17:13 28.43713 -81.32603 105 ft 31 kts 54°
2026-05-05 17:13 28.43825 -81.32400 105 ft 29 kts 58°
2026-05-05 17:13 28.43923 -81.32207 108 ft 28 kts 59°
2026-05-05 17:13 28.43985 -81.32014 108 ft 26 kts 99°
2026-05-05 17:14 28.43891 -81.31855 107 ft 24 kts 158°
2026-05-05 17:14 28.43726 -81.31845 104 ft 24 kts 179°
2026-05-05 17:14 28.43554 -81.31843 104 ft 27 kts 179°
2026-05-05 17:14 28.43361 -81.31842 100 ft 28 kts 179°
2026-05-05 17:15 28.43169 -81.31840 101 ft 27 kts 179°
2026-05-05 17:15 28.43011 -81.31830 102 ft 17 kts 161°
2026-05-05 17:15 28.42943 -81.31731 101 ft 16 kts 117°
2026-05-05 17:15 28.42890 -81.31643 101 ft 8 kts 129°
2026-05-05 17:16 28.42877 -81.31625 101 ft 0 kts 129°